CAPE
105 91 82 73 64 48 0 0 0 0 0 1 0 0 0 0 0 0 0 0 0 0 0 0 0 0 0 0 0 0 0 0 0 0 0 0 0 0 0 0 0 0 0 0
104 103 94 89 66 32 0 0 0 0 0 0 0 0 0 0 0 0 0 2 1 0 0 13 0 0 0 0 0 0 0 0 0 0 0 0 0 0 0 0 0 0 0 0
123 116 108 101 79 34 0 0 0 0 7 0 0 0 0 0 0 0 0 0 0 0 3 12 5 0 0 4 0 0 0 2 0 0 0 0 0 0 0 0 0 0 0 0
111 133 119 122 100 71 0 2 0 0 6 4 1 1 0 0 0 0 0 0 0 0 4 4 23 0 0 0 9 14 4 73 0 0 0 0 0 0 0 0 0 0 0 0
128 118 125 135 103 90 21 14 0 11 0 4 1 7 3 0 0 0 0 0 0 0 0 0 9 48 17 8 53 51 40 42 1 1 0 0 0 0 0 0 0 0 0 0
135 137 160 146 85 30 26 17 0 26 16 18 5 0 1 0 0 0 0 0 0 0 0 0 0 17 3 17 38 71 87 71 9 9 3 52 39 0 0 0 0 0 0 0
148 141 158 176 131 46 0 10 41 42 0 6 6 9 8 0 0 0 0 0 16 0 0 0 0 0 0 0 2 33 31 50 15 13 11 31 0 0 0 0 0 0 0 0
152 144 152 173 163 125 0 0 33 31 14 10 7 13 10 4 0 6 3 0 0 0 5 25 21 1 0 0 0 0 4 37 69 53 1 0 0 0 0 0 0 0 0 0
143 157 169 177 149 146 4 0 19 60 18 8 13 12 0 0 1 0 0 0 0 0 0 28 43 4 0 0 20 0 0 26 23 27 32 6 0 0 0 0 3 0 0 0
163 180 190 188 178 162 17 0 4 50 1 0 4 25 11 8 19 7 0 0 3 19 37 37 33 21 4 8 0 9 0 8 4 24 4 3 0 0 0 22 0 0 0 0
175 184 180 171 200 223 21 2 2 54 6 0 7 15 18 11 11 11 0 0 0 0 15 21 0 14 1 40 0 19 7 26 6 4 44 22 0 0 0 0 0 0 0 0
123 150 151 161 193 213 97 4 8 35 50 1 0 0 0 0 0 5 14 13 7 32 7 4 5 0 21 10 5 0 41 23 48 15 0 1 0 0 0 0 0 0 0 0
100 136 184 172 116 92 42 1 0 25 24 6 7 0 0 0 0 0 3 5 13 21 20 17 41 8 0 0 0 0 32 57 86 6 0 0 0 0 0 0 0 0 0 0
126 160 152 150 127 72 68 20 21 29 25 25 1 0 0 0 0 0 0 1 2 5 8 21 15 15 22 4 3 11 5 10 6 0 0 0 0 0 0 0 0 0 0 0
81 62 52 12 30 58 23 1 20 18 60 16 1 0 0 0 0 0 0 6 8 10 8 11 16 32 34 26 9 24 0 0 0 0 0 0 0 0 0 0 0 0 0 0
41 19 12 18 101 80 8 29 0 0 2 40 16 0 0 0 0 0 0 0 5 14 17 20 31 18 97 1 0 0 0 0 0 0 0 0 0 0 0 0 0 0 0 0
10 21 35 49 93 7 9 2 33 33 37 1 0 0 0 0 0 0 1 9 35 35 27 21 1 22 30 24 1 0 0 0 0 0 0 0 0 0 0 0 0 0 0 0
34 48 56 96 117 56 17 0 0 5 27 4 0 1 0 0 3 43 8 16 15 31 20 6 1 0 14 23 10 0 0 0 0 0 0 0 0 0 0 0 0 0 0 0
33 43 71 6 4 11 2 3 33 7 14 0 1 1 1 0 4 11 4 1 0 8 14 7 14 6 0 3 1 0 0 0 0 0 0 0 0 0 0 0 0 0 0 0
61 3 0 0 0 4 5 2 25 33 25 3 0 0 1 0 0 0 0 6 0 0 0 4 9 0 0 0 0 0 0 0 0 0 0 0 0 0 0 0 0 0 0 0
27 1 0 0 3 36 24 15 1 0 0 2 2 0 0 0 1 0 4 0 0 0 0 0 0 0 0 0 0 0 0 0 0 0 0 0 0 0 0 0 0 0 0 0
0 0 0 5 29 47 4 0 0 0 0 0 10 2 2 0 20 1 1 0 1 0 0 0 0 0 0 0 0 0 0 0 0 0 0 0 0 0 0 0 0 0 0 0
34 6 9 9 3 9 0 0 0 0 0 2 10 7 3 1 3 1 3 0 0 0 0 0 0 0 0 0 0 0 0 0 0 0 0 0 0 0 0 0 0 0 0 0
1 1 0 15 0 0 0 0 1 1 4 4 4 6 0 1 0 0 0 0 0 0 0 0 0 0 0 0 0 0 0 0 0 0 0 0 0 0 0 0 0 0 0 0
0 1 0 0 0 0 0 0 2 0 5 4 2 2 4 0 0 0 1 2 0 0 0 0 0 0 0 0 0 0 0 0 0 0 0 0 0 0 0 0 0 0 0 0
2 1 2 0 1 0 0 0 0 4 1 1 6 0 0 0 0 2 0 0 0 0 0 0 0 0 0 0 0 0 0 0 0 0 0 0 0 0 0 0 0 0 0 0
4 0 0 0 0 0 0 0 7 4 6 16 0 1 0 0 0 0 0 0 0 0 0 0 0 0 0 0 0 0 0 0 0 0 0 0 0 0 0 0 0 0 0 0
CIN
0 -1 -1 -2 -2 -3 -1 0 0 0 0 0 0 0 0 0 0 0 0 0 0 0 0 0 0 0 0 0 0 0 0 0 0 0 0 0 0 0 0 0 0 0 0 0
0 -1 -1 -1 -3 -7 0 -3 0 -5 -24 0 0 0 0 0 0 0 0 -2 -2 0 0 0 0 0 0 0 0 0 0 -2 0 0 0 0 0 0 0 0 0 0 0 0
0 0 -1 -2 -3 -9 0 0 0 0 -27 0 0 0 0 0 0 0 0 0 0 0 -9 -4 -3 0 0 -18 0 0 0 -16 0 0 0 0 0 0 0 0 0 0 0 0
0 0 0 -1 -2 -4 0 -10 -1 0 0 -1 -3 -1 0 0 0 0 0 0 0 0 -1 -1 0 0 0 0 -16 -68 -7 -12 0 0 0 0 0 0 0 0 0 0 0 0
0 0 -1 -1 -3 -4 -4 -4 -5 -15 0 -12 -2 0 0 0 0 0 0 0 0 0 0 0 0 -1 -3 -2 -6 -15 -114 -11 -109 -34 0 0 0 0 0 0 0 0 0 0
0 0 0 -2 -8 -6 -1 -15 -2 -13 -6 -3 -1 -1 -1 0 -1 0 0 -1 0 0 0 0 0 -3 -8 -15 -5 -2 -21 -28 -85 -27 -24 -97 -56 0 0 0 0 0 0 0
-1 -1 -1 -1 -5 -6 0 -22 -15 -1 -2 -2 -1 -2 -1 -1 -1 -1 0 -1 -3 0 0 0 0 0 0 0 -4 -7 -10 -21 -32 -9 -42 -3 0 0 0 0 0 0 0 0
-2 -2 -3 -2 -4 -3 0 -1 -11 -1 0 -2 -1 -1 0 -2 0 -1 -4 0 0 0 -2 0 0 -1 0 0 0 0 -1 -7 -2 -11 0 0 0 0 0 0 0 0 0 0
-2 -1 -2 -3 -5 -3 -2 0 -7 -1 -1 -1 -1 -1 -1 -1 -2 -1 0 0 0 0 -1 -1 0 -1 0 0 -3 0 0 -5 -23 -17 -9 -2 0 0 0 0 -6 0 0 0
-1 -1 -1 -1 -2 -4 -8 0 -3 -1 0 0 -2 0 -1 -8 -2 -1 0 0 -2 -14 -1 0 -1 -1 -1 -1 0 0 -1 -9 -33 -28 -43 -5 0 0 -9 -21 0 0 0 0
-1 0 -1 -1 -1 -1 -13 -1 -14 -1 -7 0 -2 -2 0 -2 -2 -1 0 -1 0 0 0 -2 -1 -2 -1 -1 0 0 -1 -1 -2 -2 -7 -4 0 0 0 0 0 0 0 0
-1 0 0 0 0 0 -4 -2 -13 -10 0 -1 -2 0 0 -1 0 -3 -1 -2 -4 -14 0 0 0 0 -3 -2 -1 0 -1 -1 -3 -18 0 -19 0 0 0 0 0 0 0 0
-1 0 0 0 0 0 -1 -4 -9 -3 -1 -2 -1 -1 0 -3 0 0 0 -1 -1 0 -3 0 0 0 -4 0 0 0 -12 -14 -6 -63 0 -38 0 0 0 0 0 0 0 0
0 0 0 0 0 -1 -1 -1 -8 -2 -2 0 -2 0 0 0 0 0 0 -1 -2 -2 -1 0 0 0 -2 -2 -6 -15 -41 -52 -44 0 0 0 0 0 0 0 0 0 0 0
-1 -6 -1 0 -1 0 -3 -1 -3 -5 -1 -1 -1 0 0 0 0 0 0 0 0 -3 0 0 0 0 -1 -11 -21 -12 0 0 0 0 0 0 0 0 0 0 0 0 0 0
-4 0 0 0 0 -1 -4 -2 0 0 0 0 0 0 0 0 0 0 0 -1 0 0 0 0 0 -1 -3 -5 -1 0 0 0 -2 0 0 0 0 0 0 0 0 0 0 0
0 0 -3 -3 0 -3 0 -6 -16 -9 -16 0 0 0 0 0 0 0 -3 -3 0 0 0 -1 -1 -1 -2 -3 -1 0 0 0 -59 0 0 0 0 0 0 0 0 0 0 0
0 -18 -12 0 0 -1 0 0 0 -26 0 0 0 0 0 0 -8 -1 -25 0 0 0 0 0 -1 0 -2 -1 -3 0 0 0 0 0 0 0 0 0 0 0 0 0 0 0
-1 -3 -4 -1 -9 -3 -2 -32 -25 -17 -2 0 0 0 -4 0 0 0 0 -5 0 0 0 0 -1 0 0 -1 -2 0 0 0 0 0 0 0 0 0 0 0 0 0 0 0
-3 -10 -17 0 0 -20 -25 -25 0 0 -1 -17 0 -1 -2 0 0 -1 0 0 0 0 0 0 0 0 0 0 0 0 0 0 0 0 0 0 0 0 0 0 0 0 0 0
-2 -2 0 0 -13 -2 0 -4 0 0 0 0 0 0 0 0 -1 0 0 0 0 0 0 0 0 0 0 0 0 0 0 0 0 0 0 0 0 0 0 0 0 0 0 0
-2 0 0 -24 -24 -3 -6 0 0 0 0 0 0 0 -1 -6 -4 0 0 0 0 0 0 0 0 0 0 0 0 0 0 0 0 0 0 0 0 0 0 0 0 0 0 0
0 -1 -1 -6 -1 -1 -1 0 0 0 0 0 0 -1 -8 0 0 0 0 0 0 0 0 0 0 0 0 0 0 0 0 0 0 0 0 0 0 0 0 0 0 0 0 0
0 0 -1 -5 0 0 0 0 -28 0 0 0 0 0 0 0 0 0 0 0 0 0 0 0 0 0 0 0 0 0 0 0 0 0 0 0 0 0 0 0 0 0 0 0
0 0 0 0 0 0 0 0 0 0 -4 0 0 0 0 0 0 0 0 0 0 0 0 0 0 0 0 0 0 0 0 0 0 0 0 0 0 0 0 0 0 0 0 0
-4 0 -1 0 0 0 0 0 0 -1 0 0 0 0 0 0 0 0 0 0 0 0 0 0 0 0 0 0 0 0 0 0 0 0 0 0 0 0 0 0 0 0 0 0
-9 0 0 0 0 0 0 0 -10 0 0 0 0 0 0 0 0 0 0 0 0 0 0 0 0 0 0 0 0 0 0 0 0 0 0 0 0 0 0 0 0 0 0 0
Wind_Speed
13 11 10 9 9 8 6 3 2 4 3 4 3 10 4 7 3 5 6 2 7 10 4 8 9 8 7 5 2 8 9 4 7 17 9 7 8 10 8 6 6 6 5 12
14 13 12 11 11 14 5 3 3 3 1 5 4 4 6 6 5 4 3 6 6 1 3 7 14 22 25 12 8 5 6 5 6 9 5 1 6 6 6 3 2 12 9 8
15 14 13 13 13 15 5 3 3 2 2 1 4 1 4 8 1 9 13 11 13 15 12 14 15 17 8 9 14 6 6 7 11 16 9 4 5 8 8 12 6 10 15 15
16 16 15 14 15 18 4 3 4 4 4 7 10 8 5 7 5 7 2 6 20 18 12 19 24 30 23 21 18 6 8 18 9 15 13 8 14 14 13 16 20 11 14 13
16 16 15 16 16 18 3 5 3 1 2 1 11 13 9 13 14 5 8 13 10 14 20 27 29 19 18 21 9 7 3 15 6 10 8 10 10 17 16 16 8 9 6 8
16 16 15 17 19 13 3 2 0 2 4 6 8 11 11 13 7 11 19 14 13 16 24 18 21 18 22 27 20 18 11 6 5 15 2 1 11 17 10 11 7 9 10 11
17 16 16 17 19 19 3 2 3 4 6 10 12 10 14 19 15 19 18 10 16 22 13 16 20 22 28 26 30 21 18 12 6 18 3 19 17 10 16 21 17 15 4 8
17 17 16 18 19 21 3 3 3 3 6 7 11 15 18 18 19 21 23 23 20 16 13 14 17 18 19 33 33 34 24 17 8 10 13 15 20 3 8 9 24 16 15 9
17 15 14 15 17 18 5 5 4 4 6 14 13 16 18 16 16 16 23 21 16 17 10 13 23 17 18 17 14 31 32 27 15 10 14 22 29 15 9 3 26 15 19 12
17 15 14 13 14 17 6 4 8 4 4 9 11 9 9 8 7 9 9 7 7 11 10 15 17 19 15 20 33 27 22 23 27 20 15 15 6 1 9 11 16 9 15 15
15 14 13 13 14 14 7 4 7 6 4 12 12 13 16 12 10 15 5 8 7 5 10 7 10 11 16 21 26 13 33 20 21 24 25 30 8 6 25 17 5 3 8 9
14 14 13 13 13 14 11 6 4 6 9 11 4 13 21 26 30 12 8 14 14 5 3 5 6 7 7 18 25 19 19 23 19 21 21 5 9 13 11 4 5 5 7 6
15 14 13 13 14 14 13 3 3 3 7 14 13 20 25 16 23 19 15 15 14 22 15 10 10 12 6 15 18 26 25 17 13 6 10 14 10 7 7 9 15 8 7 14
14 13 13 13 13 14 12 6 5 7 5 7 14 12 17 22 20 26 25 29 22 21 12 12 10 11 8 12 12 12 8 13 19 8 3 9 13 15 15 8 6 7 9 13
13 14 14 13 13 13 8 4 6 9 8 6 9 15 25 15 15 24 27 27 25 15 13 11 16 14 15 8 6 15 9 7 14 10 11 13 17 8 7 10 10 14 16 8
13 13 13 13 12 10 2 4 7 13 10 7 8 9 17 15 19 26 28 24 18 19 10 12 13 16 7 7 6 9 20 15 17 8 4 6 7 20 14 12 14 11 14 16
12 13 13 13 12 5 5 6 3 5 3 4 5 6 7 6 9 11 16 20 11 9 19 14 8 7 15 10 6 5 11 17 15 14 14 6 8 9 13 12 9 10 9 9
11 12 12 13 14 10 10 9 16 11 5 4 5 8 5 7 4 5 5 5 6 6 4 3 5 5 7 12 18 5 6 9 12 21 18 20 9 13 14 18 16 16 14 12
9 9 9 2 4 4 4 8 10 5 6 4 4 4 5 1 3 6 5 3 4 4 5 4 4 6 9 8 12 15 7 9 10 10 12 16 15 18 17 18 17 17 11 11
7 2 2 3 4 2 3 2 3 5 6 6 9 3 11 0 3 2 5 4 3 3 4 2 3 5 3 11 9 9 8 10 15 11 9 14 13 17 19 19 18 18 15 12
2 3 4 3 2 1 3 5 5 4 4 6 6 12 11 4 7 5 7 3 2 2 2 3 3 5 7 10 10 7 8 9 9 11 10 9 19 19 16 11 11 13 14 13
4 4 2 2 2 3 5 5 3 5 8 4 4 5 7 3 3 5 5 2 1 5 1 1 4 6 4 9 9 9 8 9 14 18 17 14 13 11 16 16 12 10 9 12
2 4 3 4 5 8 6 6 4 4 3 3 3 4 3 4 3 6 3 3 4 2 1 4 6 2 1 6 6 8 7 9 14 15 15 11 9 9 7 11 11 13 13 9
5 5 6 5 6 6 6 3 2 2 3 6 6 6 4 2 4 3 3 3 1 1 2 7 3 4 8 6 7 10 8 11 13 14 15 15 15 11 9 10 13 15 12 7
4 4 7 9 6 3 4 4 3 3 5 7 5 4 3 2 4 1 1 2 3 4 6 6 2 2 8 8 6 8 9 9 10 12 14 14 15 16 12 9 11 12 11 9
4 4 3 3 2 4 1 3 2 1 6 9 4 4 3 6 3 2 6 6 6 5 4 4 3 3 6 8 7 7 9 12 12 12 15 16 16 17 14 10 9 8 11 9
5 4 3 4 3 5 3 3 3 1 2 4 7 4 6 1 1 3 4 6 4 3 3 3 2 5 6 8 9 10 12 14 14 15 13 14 14 15 14 13 5 7 7 6
Wind_Direction
251 235 224 212 211 186 105 142 216 304 133 168 217 228 228 356 316 19 270 294 241 258 292 271 276 257 224 44 162 166 205 171 256 240 237 199 203 216 202 183 249 218 206 254
248 238 219 207 207 162 133 185 237 14 28 199 219 293 308 280 261 61 280 262 209 60 246 272 238 259 266 278 264 229 184 226 298 295 346 111 211 202 203 193 128 236 256 279
243 234 219 206 202 174 110 131 188 302 219 162 139 51 262 262 153 250 241 271 300 287 274 251 272 274 293 262 238 230 166 204 196 250 229 169 220 205 207 209 220 253 244 268
237 230 220 209 199 183 113 169 224 198 187 237 244 231 253 239 249 219 214 257 235 253 279 273 258 260 272 266 291 283 175 244 240 250 253 210 242 241 222 220 241 223 252 232
232 226 219 209 192 181 198 164 164 158 180 104 195 208 223 241 255 252 261 267 287 271 259 250 275 293 271 265 271 211 276 241 207 253 228 209 233 240 231 237 226 245 237 253
229 225 217 208 193 168 190 168 193 84 199 208 213 227 243 256 260 254 250 253 264 256 257 286 296 291 294 277 282 271 243 237 246 263 274 58 256 235 218 233 207 194 216 220
223 220 216 206 200 189 157 175 125 196 227 222 230 248 243 248 252 259 265 260 242 258 283 292 280 273 266 273 268 262 273 255 235 262 222 250 258 187 220 232 233 220 222 186
216 216 214 210 205 194 159 184 170 171 245 230 234 246 249 258 257 257 270 261 259 274 279 280 279 274 265 249 259 246 247 250 245 246 238 272 275 196 197 182 254 222 217 213
210 210 208 208 203 200 171 210 194 215 258 236 246 255 255 256 261 267 261 263 253 258 256 235 244 245 254 247 253 227 238 250 243 241 256 265 261 231 180 139 262 184 205 203
205 204 204 203 206 209 180 221 187 232 244 247 240 230 240 223 223 259 286 301 223 218 237 238 232 243 244 238 252 248 220 226 240 241 250 257 218 228 131 174 253 187 189 195
200 200 202 205 206 210 183 227 183 215 244 259 244 234 238 248 233 250 234 323 238 221 233 250 231 222 228 235 256 278 222 216 223 231 235 245 190 138 200 231 176 198 208 182
206 203 202 205 210 213 196 236 187 214 245 267 253 250 246 238 233 248 233 251 259 292 350 285 253 248 199 231 253 214 231 227 221 201 218 170 180 200 216 194 152 224 191 165
215 212 211 214 217 218 209 183 181 198 252 269 252 253 244 233 228 226 242 243 244 247 243 266 255 258 185 221 254 237 222 199 218 184 208 207 194 239 204 182 207 190 173 157
220 221 222 221 223 226 228 225 203 219 266 263 275 243 243 239 232 226 226 245 249 255 248 245 251 255 245 228 226 247 209 162 207 250 220 209 213 196 189 193 191 135 154 154
227 231 232 234 232 235 237 219 221 217 229 277 285 299 262 258 225 228 229 231 235 232 240 234 246 242 237 234 214 228 201 194 197 216 185 196 213 179 116 163 165 156 147 125
235 239 239 235 229 232 159 269 219 208 206 253 249 255 266 240 225 232 233 231 232 232 228 234 231 247 236 225 205 233 219 206 199 189 172 258 199 172 167 161 152 157 155 145
239 237 234 234 235 194 196 203 180 124 198 263 270 257 250 258 242 240 240 243 231 239 229 226 235 258 215 236 234 220 208 201 193 191 151 174 231 182 159 131 125 110 102 115
236 230 233 239 240 245 245 249 270 291 258 227 239 261 289 184 242 247 190 217 185 200 263 223 200 234 231 247 204 214 237 181 180 173 186 191 159 127 128 132 134 132 131 124
235 247 258 279 201 220 226 204 219 195 212 251 235 245 273 6 345 336 291 184 178 206 233 210 229 178 209 273 179 194 187 187 175 154 154 137 143 147 142 142 138 133 131 125
252 138 137 227 221 251 9 332 231 209 202 215 248 190 252 301 349 287 289 236 200 214 228 268 227 260 235 217 230 161 171 162 151 127 116 127 137 143 151 154 149 146 143 134
135 192 210 227 248 157 229 221 214 200 231 214 236 223 243 211 228 242 226 254 206 253 219 231 228 248 212 202 199 172 157 146 115 100 95 152 155 147 132 110 119 131 135 137
180 237 195 105 200 206 236 235 236 219 228 217 240 227 210 234 204 217 256 247 225 253 85 253 248 253 222 175 186 158 150 134 111 105 105 107 127 127 123 117 124 140 128 125
270 202 159 178 210 221 212 223 205 239 240 261 272 266 228 173 211 241 237 225 233 285 249 247 238 232 65 141 120 115 122 123 118 113 116 111 96 80 122 123 118 117 106 114
242 168 190 218 208 228 210 206 256 245 279 294 303 272 227 205 236 228 196 258 209 29 284 249 224 208 119 106 117 114 146 130 125 139 138 146 140 122 115 127 116 122 129 124
246 192 203 215 232 254 246 248 268 258 270 274 270 232 211 205 248 235 182 199 255 223 227 248 117 148 129 134 129 139 130 109 112 128 127 124 122 117 112 109 114 117 118 113
233 234 247 216 272 281 211 239 270 23 327 301 225 243 199 220 196 158 226 170 221 244 225 273 336 135 113 129 131 127 120 117 115 114 124 120 122 129 120 100 100 105 123 127
216 228 229 251 295 264 230 191 206 191 344 337 295 253 219 85 55 236 209 221 231 253 283 262 5 109 123 115 117 118 118 115 116 115 113 110 113 117 114 110 108 109 109 105